| time (UTC) | temp C | wind direction | speed KPH | gust KPH | rain 1hr cm | rain 24hr cm | rain mn cm | humidity % | barometer mb |
| 20260508004542 | 13 | 120 | 1.6 | 4.8 | 0.00 | 0.00 | 0.00 | 84 | 1013.2 |
| 20260508003041 | 13 | 194 | 0.0 | 3.2 | 0.00 | 0.00 | 0.00 | 83 | 1013.2 |
| 20260508001539 | 13 | 194 | 0.0 | 1.6 | 0.00 | 0.00 | 0.00 | 81 | 1013.4 |
| 20260508000038 | 13 | 194 | 0.0 | 1.6 | 0.00 | 0.00 | 0.00 | 80 | 1013.5 |
| 20260507234541 | 13 | 194 | 0.0 | 4.8 | 0.00 | 0.00 | 0.00 | 82 | 1013.6 |
| 20260507233035 | 13 | 328 | 0.0 | 1.6 | 0.00 | 0.00 | 0.00 | 82 | 1013.6 |
| 20260507231539 | 14 | 328 | 0.0 | 3.2 | 0.00 | 0.00 | 0.00 | 80 | 1013.6 |
| 20260507230039 | 15 | 35 | 1.6 | 8.0 | 0.00 | 0.00 | 0.00 | 74 | 1013.7 |
| 20260507224628 | 15 | 123 | 4.8 | 11.3 | 0.00 | 0.00 | 0.00 | 76 | 1013.6 |
| 20260507223025 | 15 | 134 | 1.6 | 8.0 | 0.00 | 0.00 | 0.00 | 80 | 1013.5 |
| 20260507221524 | 15 | 109 | 3.2 | 8.0 | 0.00 | 0.00 | 0.00 | 80 | 1013.5 |
| 20260507220024 | 15 | 100 | 0.0 | 3.2 | 0.00 | 0.00 | 0.00 | 79 | 1013.5 |
| 20260507214522 | 15 | 111 | 1.6 | 12.9 | 0.00 | 0.00 | 0.00 | 79 | 1013.4 |
| 20260507213020 | 15 | 92 | 3.2 | 8.0 | 0.00 | 0.00 | 0.00 | 80 | 1013.5 |
| 20260507211533 | 15 | 101 | 1.6 | 8.0 | 0.00 | 0.00 | 0.00 | 80 | 1013.5 |
| 20260507210020 | 15 | 111 | 3.2 | 11.3 | 0.00 | 0.00 | 0.00 | 80 | 1013.5 |
| 20260507204523 | 15 | 121 | 1.6 | 12.9 | 0.00 | 0.00 | 0.00 | 80 | 1013.6 |
| 20260507203022 | 15 | 112 | 1.6 | 4.8 | 0.00 | 0.00 | 0.00 | 81 | 1013.8 |
| 20260507201519 | 15 | 112 | 1.6 | 6.4 | 0.00 | 0.00 | 0.00 | 80 | 1013.9 |
| 20260507200017 | 15 | 115 | 1.6 | 11.3 | 0.00 | 0.00 | 0.00 | 80 | 1013.7 |
| 20260507194522 | 15 | 123 | 3.2 | 11.3 | 0.00 | 0.00 | 0.00 | 79 | 1013.7 |
| 20260507193015 | 15 | 121 | 4.8 | 14.5 | 0.00 | 0.00 | 0.00 | 79 | 1013.6 |
| 20260507191515 | 15 | 111 | 4.8 | 16.1 | 0.00 | 0.00 | 0.00 | 78 | 1013.3 |
| 20260507190015 | 15 | 136 | 8.0 | 17.7 | 0.00 | 0.00 | 0.00 | 76 | 1013.2 |
| 20260507184514 | 15 | 109 | 9.7 | 17.7 | 0.00 | 0.00 | 0.00 | 79 | 1013.2 |
| 20260507183033 | 15 | 84 | 6.4 | 14.5 | 0.00 | 0.00 | 0.00 | 84 | 1013.2 |
| 20260507181513 | 15 | 109 | 4.8 | 11.3 | 0.00 | 0.00 | 0.00 | 85 | 1013.2 |
| 20260507180012 | 15 | 86 | 6.4 | 11.3 | 0.00 | 0.00 | 0.00 | 84 | 1012.9 |
| 20260507174515 | 16 | 86 | 4.8 | 11.3 | 0.00 | 0.00 | 0.00 | 82 | 1012.7 |
| 20260507173010 | 16 | 112 | 1.6 | 11.3 | 0.00 | 0.00 | 0.00 | 79 | 1012.6 |
| 20260507171510 | 17 | 117 | 1.6 | 9.7 | 0.00 | 0.00 | 0.00 | 75 | 1012.7 |
| 20260507170009 | 18 | 35 | 1.6 | 6.4 | 0.00 | 0.00 | 0.00 | 71 | 1012.7 |
| 20260507164509 | 18 | 126 | 0.0 | 6.4 | 0.00 | 0.00 | 0.00 | 69 | 1012.6 |
| 20260507163007 | 18 | 66 | 1.6 | 6.4 | 0.00 | 0.00 | 0.00 | 68 | 1012.6 |
| 20260507161508 | 18 | 134 | 3.2 | 11.3 | 0.00 | 0.00 | 0.00 | 67 | 1012.7 |
| 20260507160017 | 17 | 104 | 1.6 | 14.5 | 0.00 | 0.00 | 0.00 | 67 | 1012.7 |
| 20260507154507 | 18 | 315 | 1.6 | 9.7 | 0.00 | 0.00 | 0.00 | 64 | 1012.7 |
| 20260507153006 | 18 | 19 | 1.6 | 9.7 | 0.00 | 0.00 | 0.00 | 61 | 1012.6 |
| 20260507151505 | 18 | 115 | 3.2 | 12.9 | 0.00 | 0.00 | 0.00 | 64 | 1012.7 |
| 20260507150006 | 18 | 64 | 4.8 | 11.3 | 0.00 | 0.00 | 0.00 | 61 | 1012.7 |
| 20260507144505 | 19 | 313 | 1.6 | 9.7 | 0.00 | 0.00 | 0.00 | 61 | 1012.7 |
| 20260507143007 | 19 | 90 | 4.8 | 9.7 | 0.00 | 0.00 | 0.00 | 60 | 1012.7 |
| 20260507141513 | 19 | 63 | 1.6 | 6.4 | 0.00 | 0.00 | 0.00 | 62 | 1012.7 |
| 20260507140006 | 18 | 71 | 6.4 | 16.1 | 0.00 | 0.00 | 0.00 | 64 | 1012.7 |
| 20260507134503 | 18 | 28 | 3.2 | 14.5 | 0.00 | 0.00 | 0.00 | 63 | 1012.7 |
| 20260507133003 | 20 | 33 | 3.2 | 9.7 | 0.00 | 0.00 | 0.00 | 61 | 1012.8 |
| 20260507131502 | 19 | 71 | 1.6 | 12.9 | 0.00 | 0.00 | 0.00 | 60 | 1012.9 |
| 20260507130001 | 19 | 46 | 3.2 | 11.3 | 0.00 | 0.00 | 0.00 | 60 | 1012.9 |
| 20260507124503 | 20 | 209 | 1.6 | 11.3 | 0.00 | 0.00 | 0.00 | 59 | 1012.8 |
| 20260507123103 | 20 | 123 | 1.6 | 6.4 | 0.00 | 0.00 | 0.00 | 58 | 1012.9 |
| 20260507121558 | 18 | 360 | 3.2 | 14.5 | 0.00 | 0.00 | 0.00 | 60 | 1013.0 |
| 20260507120058 | 19 | 130 | 3.2 | 12.9 | 0.00 | 0.00 | 0.00 | 59 | 1013.1 |
| 20260507114612 | 18 | 94 | 3.2 | 9.7 | 0.00 | 0.00 | 0.00 | 60 | 1013.2 |
| 20260507113058 | 18 | 155 | 1.6 | 14.5 | 0.00 | 0.00 | 0.00 | 59 | 1013.2 |
| 20260507111556 | 18 | 22 | 6.4 | 17.7 | 0.00 | 0.00 | 0.00 | 59 | 1013.2 |
| 20260507110057 | 18 | 49 | 1.6 | 11.3 | 0.00 | 0.00 | 0.00 | 58 | 1013.4 |
| 20260507104558 | 18 | 26 | 1.6 | 8.0 | 0.00 | 0.00 | 0.00 | 61 | 1013.5 |
| 20260507103055 | 18 | 254 | 3.2 | 16.1 | 0.00 | 0.00 | 0.00 | 53 | 1013.5 |
| 20260507101557 | 18 | 294 | 1.6 | 17.7 | 0.00 | 0.00 | 0.00 | 44 | 1013.4 |
| 20260507100054 | 19 | 305 | 1.6 | 12.9 | 0.00 | 0.00 | 0.00 | 42 | 1013.4 |
| 20260507094546 | 18 | 306 | 6.4 | 19.3 | 0.00 | 0.00 | 0.00 | 43 | 1013.4 |
| 20260507093044 | 18 | 259 | 8.0 | 25.7 | 0.00 | 0.00 | 0.00 | 46 | 1013.3 |
| 20260507091544 | 18 | 230 | 9.7 | 17.7 | 0.00 | 0.00 | 0.00 | 42 | 1013.3 |
| 20260507090040 | 17 | 235 | 6.4 | 27.4 | 0.00 | 0.00 | 0.00 | 41 | 1013.3 |
| 20260507084538 | 18 | 279 | 11.3 | 22.5 | 0.00 | 0.00 | 0.00 | 46 | 1013.3 |
| 20260507083034 | 17 | 254 | 9.7 | 17.7 | 0.00 | 0.00 | 0.00 | 49 | 1013.2 |
| 20260507081531 | 17 | 204 | 8.0 | 16.1 | 0.00 | 0.00 | 0.00 | 54 | 1013.0 |
| 20260507080030 | 16 | 39 | 3.2 | 17.7 | 0.00 | 0.00 | 0.00 | 57 | 1012.9 |
| 20260507074530 | 17 | 222 | 9.7 | 17.7 | 0.00 | 0.00 | 0.00 | 56 | 1012.8 |
| 20260507073029 | 17 | 223 | 0.0 | 9.7 | 0.00 | 0.00 | 0.00 | 58 | 1012.8 |
| 20260507071523 | 16 | 215 | 0.0 | 14.5 | 0.00 | 0.00 | 0.00 | 61 | 1012.8 |
| 20260507070019 | 15 | 236 | 3.2 | 11.3 | 0.00 | 0.00 | 0.00 | 63 | 1013.1 |
| 20260507064516 | 15 | 263 | 3.2 | 9.7 | 0.00 | 0.00 | 0.00 | 66 | 1013.1 |
| 20260507063025 | 15 | 194 | 3.2 | 9.7 | 0.00 | 0.00 | 0.00 | 67 | 1012.9 |
| 20260507061512 | 14 | 190 | 3.2 | 11.3 | 0.00 | 0.00 | 0.00 | 68 | 1013.0 |
| 20260507060024 | 13 | 185 | 6.4 | 14.5 | 0.00 | 0.00 | 0.00 | 69 | 1012.8 |
| 20260507054508 | 13 | 242 | 6.4 | 16.1 | 0.00 | 0.00 | 0.00 | 72 | 1012.7 |
| 20260507053006 | 13 | 241 | 8.0 | 12.9 | 0.00 | 0.00 | 0.00 | 75 | 1012.5 |
| 20260507051604 | 13 | 215 | 3.2 | 8.0 | 0.00 | 0.00 | 0.00 | 75 | 1012.4 |
| 20260507050101 | 13 | 240 | 3.2 | 11.3 | 0.00 | 0.00 | 0.00 | 73 | 1012.3 |
| 20260507044555 | 14 | 198 | 6.4 | 12.9 | 0.00 | 0.03 | 0.00 | 71 | 1012.1 |
| 20260507043052 | 14 | 238 | 8.0 | 17.7 | 0.00 | 0.03 | 0.00 | 70 | 1011.7 |
| 20260507041549 | 14 | 248 | 1.6 | 8.0 | 0.00 | 0.03 | 0.00 | 70 | 1011.5 |
| 20260507040048 | 14 | 196 | 0.0 | 11.3 | 0.00 | 0.03 | 0.00 | 71 | 1011.7 |
| 20260507034548 | 14 | 141 | 6.4 | 11.3 | 0.00 | 0.03 | 0.00 | 72 | 1011.5 |
| 20260507033048 | 14 | 181 | 4.8 | 17.7 | 0.00 | 0.03 | 0.00 | 72 | 1011.6 |
| 20260507031547 | 14 | 177 | 6.4 | 12.9 | 0.00 | 0.03 | 0.00 | 73 | 1011.6 |
| 20260507030045 | 14 | 246 | 11.3 | 17.7 | 0.00 | 0.03 | 0.00 | 72 | 1011.7 |
| 20260507024543 | 14 | 284 | 9.7 | 22.5 | 0.00 | 0.03 | 0.00 | 72 | 1011.4 |
| 20260507023041 | 14 | 161 | 3.2 | 16.1 | 0.00 | 0.03 | 0.00 | 75 | 1011.4 |
| 20260507021539 | 14 | 259 | 1.6 | 11.3 | 0.00 | 0.03 | 0.00 | 75 | 1011.4 |
| 20260507020043 | 15 | 254 | 4.8 | 11.3 | 0.00 | 0.03 | 0.00 | 74 | 1011.3 |
| 20260507014548 | 15 | 197 | 1.6 | 6.4 | 0.00 | 0.03 | 0.00 | 75 | 1011.4 |
| 20260507013136 | 15 | 276 | 8.0 | 17.7 | 0.00 | 0.03 | 0.00 | 75 | 1011.4 |
| 20260507011536 | 15 | 213 | 1.6 | 19.3 | 0.00 | 0.03 | 0.00 | 76 | 1011.4 |
| 20260507010045 | 15 | 183 | 1.6 | 11.3 | 0.00 | 0.03 | 0.00 | 77 | 1011.3 |